| time (UTC) | temp F | wind direction | speed MPH | gust MPH | rain 1hr in | rain 24hr in | rain mn in | humidity % | barometer mb |
| 20260903080003 | 72 | 140 | 0.0 | 1.0 | 0.00 | 0.00 | 0.00 | 44 | |
| 20260903075503 | 72 | 188 | 0.0 | 2.0 | 0.00 | 0.00 | 0.00 | 46 | |
| 20260903075003 | 71 | 182 | 0.0 | 2.0 | 0.00 | 0.00 | 0.00 | 47 | |
| 20260903074503 | 70 | 146 | 1.0 | 3.0 | 0.00 | 0.00 | 0.00 | 48 | |
| 20260903074003 | 70 | 134 | 1.0 | 3.0 | 0.00 | 0.00 | 0.00 | 50 | |
| 20260903073503 | 69 | 129 | 0.0 | 2.0 | 0.00 | 0.00 | 0.00 | 51 | |
| 20260903073003 | 69 | 147 | 1.0 | 2.0 | 0.00 | 0.00 | 0.00 | 53 | |
| 20260903072503 | 68 | 131 | 1.0 | 2.0 | 0.00 | 0.00 | 0.00 | 55 | |
| 20260903072003 | 68 | 74 | 0.0 | 2.0 | 0.00 | 0.00 | 0.00 | 56 | |
| 20260903071503 | 67 | 90 | 0.0 | 4.0 | 0.00 | 0.00 | 0.00 | 57 | |
| 20260903071003 | 67 | 81 | 1.0 | 4.0 | 0.00 | 0.00 | 0.00 | 57 | |
| 20260903070503 | 66 | 79 | 1.0 | 2.0 | 0.00 | 0.00 | 0.00 | 62 | |
| 20260903070003 | 66 | 130 | 1.0 | 3.0 | 0.00 | 0.00 | 0.00 | 62 | |
| 20260903065503 | 65 | 120 | 0.0 | 3.0 | 0.00 | 0.00 | 0.00 | 63 | |
| 20260903065003 | 65 | 116 | 1.0 | 3.0 | 0.00 | 0.00 | 0.00 | 63 | |
| 20260903064503 | 64 | 129 | 1.0 | 3.0 | 0.00 | 0.00 | 0.00 | 64 | |
| 20260903064003 | 64 | 128 | 1.0 | 3.0 | 0.00 | 0.00 | 0.00 | 65 | |
| 20260903063503 | 64 | 120 | 1.0 | 5.0 | 0.00 | 0.00 | 0.00 | 66 | |
| 20260903063003 | 63 | 116 | 0.0 | 5.0 | 0.00 | 0.00 | 0.00 | 66 | |
| 20260903062503 | 63 | 121 | 1.0 | 4.0 | 0.00 | 0.00 | 0.00 | 67 | |
| 20260903062003 | 63 | 131 | 0.0 | 4.0 | 0.00 | 0.00 | 0.00 | 68 | |
| 20260903061503 | 62 | 135 | 0.0 | 2.0 | 0.00 | 0.00 | 0.00 | 68 | |
| 20260903061003 | 62 | 135 | 0.0 | 2.0 | 0.00 | 0.00 | 0.00 | 69 | |
| 20260903060503 | 62 | 135 | 0.0 | 2.0 | 0.00 | 0.00 | 0.00 | 69 | |
| 20260903060003 | 62 | 157 | 0.0 | 2.0 | 0.00 | 0.00 | 0.00 | 69 | |
| 20260903055503 | 61 | 179 | 0.0 | 2.0 | 0.00 | 0.00 | 0.00 | 70 | |
| 20260903055003 | 61 | 180 | 0.0 | 2.0 | 0.00 | 0.00 | 0.00 | 70 | |
| 20260903054503 | 61 | 180 | 0.0 | 2.0 | 0.00 | 0.00 | 0.00 | 70 | |
| 20260903054003 | 61 | 180 | 0.0 | 2.0 | 0.00 | 0.00 | 0.00 | 71 | |
| 20260903053503 | 61 | 180 | 0.0 | 2.0 | 0.00 | 0.00 | 0.00 | 71 | |
| 20260903053003 | 61 | 180 | 0.0 | 2.0 | 0.00 | 0.00 | 0.00 | 71 | |
| 20260903052503 | 60 | 158 | 0.0 | 2.0 | 0.00 | 0.00 | 0.00 | 71 | |
| 20260903052003 | 60 | 136 | 0.0 | 2.0 | 0.00 | 0.00 | 0.00 | 71 | |
| 20260903051503 | 60 | 135 | 0.0 | 3.0 | 0.00 | 0.00 | 0.00 | 71 | |
| 20260903051003 | 60 | 135 | 0.0 | 3.0 | 0.00 | 0.00 | 0.00 | 70 | |
| 20260903050503 | 60 | 139 | 0.0 | 2.0 | 0.00 | 0.00 | 0.00 | 69 | |
| 20260903050003 | 60 | 147 | 0.0 | 2.0 | 0.00 | 0.00 | 0.00 | 69 | |
| 20260903045503 | 60 | 141 | 1.0 | 2.0 | 0.00 | 0.00 | 0.00 | 68 | |
| 20260903045003 | 60 | 130 | 0.0 | 2.0 | 0.00 | 0.00 | 0.00 | 67 | |
| 20260903044503 | 60 | 126 | 0.0 | 2.0 | 0.00 | 0.00 | 0.00 | 67 | |
| 20260903044003 | 60 | 130 | 1.0 | 2.0 | 0.00 | 0.00 | 0.00 | 67 | |
| 20260903043503 | 60 | 135 | 0.0 | 2.0 | 0.00 | 0.00 | 0.00 | 67 | |
| 20260903043003 | 60 | 135 | 0.0 | 2.0 | 0.00 | 0.00 | 0.00 | 67 | |
| 20260903042503 | 60 | 0 | 0.0 | 0.0 | 0.00 | 0.00 | 0.00 | 67 | |
| 20260903042003 | 60 | 0 | 0.0 | 0.0 | 0.00 | 0.00 | 0.00 | 66 | |
| 20260903041503 | 60 | 0 | 0.0 | 0.0 | 0.00 | 0.00 | 0.00 | 66 | |
| 20260903041003 | 61 | 0 | 0.0 | 0.0 | 0.00 | 0.00 | 0.00 | 66 | |
| 20260903040503 | 61 | 0 | 0.0 | 0.0 | 0.00 | 0.00 | 0.00 | 66 | |
| 20260903040003 | 61 | 135 | 0.0 | 2.0 | 0.00 | 0.00 | 0.00 | 66 | |
| 20260903035503 | 61 | 135 | 0.0 | 2.0 | 0.00 | 0.00 | 0.00 | 67 | |
| 20260903035003 | 61 | 0 | 0.0 | 0.0 | 0.00 | 0.00 | 0.00 | 66 | |
| 20260903034503 | 60 | 135 | 0.0 | 2.0 | 0.00 | 0.00 | 0.00 | 66 | |
| 20260903034003 | 60 | 135 | 0.0 | 2.0 | 0.00 | 0.00 | 0.00 | 64 | |
| 20260903033503 | 61 | 135 | 1.0 | 2.0 | 0.00 | 0.00 | 0.00 | 64 | |
| 20260903033003 | 61 | 135 | 0.0 | 2.0 | 0.00 | 0.00 | 0.00 | 64 | |
| 20260903032503 | 61 | 135 | 0.0 | 2.0 | 0.00 | 0.00 | 0.00 | 63 | |
| 20260903032003 | 61 | 135 | 0.0 | 2.0 | 0.00 | 0.00 | 0.00 | 63 | |
| 20260903031503 | 62 | 135 | 0.0 | 2.0 | 0.00 | 0.00 | 0.00 | 63 | |
| 20260903031003 | 62 | 135 | 0.0 | 2.0 | 0.00 | 0.00 | 0.00 | 63 | |
| 20260903030503 | 62 | 0 | 0.0 | 0.0 | 0.00 | 0.00 | 0.00 | 63 | |
| 20260903030003 | 62 | 0 | 0.0 | 0.0 | 0.00 | 0.00 | 0.00 | 63 | |
| 20260903025503 | 62 | 0 | 0.0 | 0.0 | 0.00 | 0.00 | 0.00 | 62 | |
| 20260903025003 | 62 | 135 | 0.0 | 1.0 | 0.00 | 0.00 | 0.00 | 62 | |
| 20260903024503 | 62 | 135 | 0.0 | 2.0 | 0.00 | 0.00 | 0.00 | 62 | |
| 20260903024003 | 62 | 135 | 0.0 | 2.0 | 0.00 | 0.00 | 0.00 | 61 | |
| 20260903023503 | 62 | 135 | 0.0 | 2.0 | 0.00 | 0.00 | 0.00 | 61 | |
| 20260903023003 | 62 | 143 | 0.0 | 2.0 | 0.00 | 0.00 | 0.00 | 61 | |
| 20260903022503 | 62 | 150 | 0.0 | 1.0 | 0.00 | 0.00 | 0.00 | 61 | |
| 20260903022003 | 62 | 141 | 0.0 | 1.0 | 0.00 | 0.00 | 0.00 | 61 | |
| 20260903021503 | 63 | 135 | 0.0 | 2.0 | 0.00 | 0.00 | 0.00 | 61 | |
| 20260903021003 | 62 | 135 | 0.0 | 2.0 | 0.00 | 0.00 | 0.00 | 61 | |
| 20260903020503 | 63 | 133 | 0.0 | 2.0 | 0.00 | 0.00 | 0.00 | 61 | |
| 20260903020003 | 63 | 131 | 0.0 | 2.0 | 0.00 | 0.00 | 0.00 | 61 | |
| 20260903015503 | 63 | 199 | 0.0 | 2.0 | 0.00 | 0.00 | 0.00 | 61 | |
| 20260903015003 | 63 | 169 | 0.0 | 2.0 | 0.00 | 0.00 | 0.00 | 61 | |
| 20260903014503 | 63 | 138 | 0.0 | 2.0 | 0.00 | 0.00 | 0.00 | 61 | |
| 20260903014003 | 63 | 135 | 0.0 | 2.0 | 0.00 | 0.00 | 0.00 | 61 | |
| 20260903013503 | 63 | 139 | 0.0 | 2.0 | 0.00 | 0.00 | 0.00 | 61 | |
| 20260903013003 | 63 | 141 | 0.0 | 2.0 | 0.00 | 0.00 | 0.00 | 60 | |
| 20260903012503 | 63 | 142 | 0.0 | 2.0 | 0.00 | 0.00 | 0.00 | 61 | |
| 20260903012003 | 64 | 0 | 0.0 | 0.0 | 0.00 | 0.00 | 0.00 | 61 | |
| 20260903011503 | 63 | 0 | 0.0 | 0.0 | 0.00 | 0.00 | 0.00 | 60 | |
| 20260903011003 | 64 | 0 | 0.0 | 0.0 | 0.00 | 0.00 | 0.00 | 59 | |
| 20260903010503 | 64 | 135 | 0.0 | 2.0 | 0.00 | 0.00 | 0.00 | 59 | |
| 20260903010003 | 64 | 135 | 0.0 | 2.0 | 0.00 | 0.00 | 0.00 | 59 | |
| 20260903005503 | 64 | 135 | 0.0 | 2.0 | 0.00 | 0.00 | 0.00 | 58 | |
| 20260903005003 | 64 | 180 | 0.0 | 1.0 | 0.00 | 0.00 | 0.00 | 58 | |
| 20260903004503 | 64 | 180 | 0.0 | 1.0 | 0.00 | 0.00 | 0.00 | 58 | |
| 20260903004003 | 64 | 0 | 0.0 | 0.0 | 0.00 | 0.00 | 0.00 | 58 | |
| 20260903003503 | 65 | 0 | 0.0 | 0.0 | 0.00 | 0.00 | 0.00 | 58 | |
| 20260903003003 | 65 | 0 | 0.0 | 0.0 | 0.00 | 0.00 | 0.00 | 58 | |
| 20260903002503 | 65 | 135 | 0.0 | 1.0 | 0.00 | 0.00 | 0.00 | 58 | |
| 20260903002003 | 65 | 135 | 0.0 | 1.0 | 0.00 | 0.00 | 0.00 | 58 | |
| 20260903001503 | 65 | 0 | 0.0 | 0.0 | 0.00 | 0.00 | 0.00 | 58 | |
| 20260903001003 | 64 | 0 | 0.0 | 0.0 | 0.00 | 0.00 | 0.00 | 58 | |
| 20260903000503 | 64 | 0 | 0.0 | 0.0 | 0.00 | 0.00 | 0.00 | 57 | |
| 20260903000003 | 64 | 0 | 0.0 | 0.0 | 0.00 | 0.00 | 0.00 | 57 | |
| 20260902235503 | 64 | 0 | 0.0 | 0.0 | 0.00 | 0.00 | 0.00 | 57 | |
| 20260902235003 | 64 | 225 | 0.0 | 1.0 | 0.00 | 0.00 | 0.00 | 56 | |
| 20260902234503 | 65 | 172 | 0.0 | 2.0 | 0.00 | 0.00 | 0.00 | 56 | |
| 20260902234003 | 65 | 148 | 0.0 | 2.0 | 0.00 | 0.00 | 0.00 | 56 | |
| 20260902233503 | 65 | 139 | 0.0 | 2.0 | 0.00 | 0.00 | 0.00 | 55 | |
| 20260902233003 | 65 | 139 | 1.0 | 2.0 | 0.00 | 0.00 | 0.00 | 55 | |
| 20260902232503 | 66 | 147 | 0.0 | 2.0 | 0.00 | 0.00 | 0.00 | 54 | |
| 20260902232003 | 66 | 140 | 0.0 | 2.0 | 0.00 | 0.00 | 0.00 | 54 | |
| 20260902231503 | 66 | 135 | 0.0 | 1.0 | 0.00 | 0.00 | 0.00 | 54 | |
| 20260902231003 | 66 | 0 | 0.0 | 0.0 | 0.00 | 0.00 | 0.00 | 53 | |
| 20260902230503 | 66 | 171 | 0.0 | 1.0 | 0.00 | 0.00 | 0.00 | 52 | |
| 20260902230003 | 66 | 159 | 0.0 | 2.0 | 0.00 | 0.00 | 0.00 | 52 | |
| 20260902225503 | 66 | 134 | 0.0 | 2.0 | 0.00 | 0.00 | 0.00 | 52 | |
| 20260902225003 | 66 | 144 | 0.0 | 2.0 | 0.00 | 0.00 | 0.00 | 51 | |
| 20260902224503 | 67 | 158 | 0.0 | 2.0 | 0.00 | 0.00 | 0.00 | 51 | |
| 20260902224003 | 67 | 141 | 1.0 | 2.0 | 0.00 | 0.00 | 0.00 | 50 | |
| 20260902223503 | 67 | 146 | 0.0 | 2.0 | 0.00 | 0.00 | 0.00 | 50 | |
| 20260902223003 | 67 | 155 | 0.0 | 2.0 | 0.00 | 0.00 | 0.00 | 50 | |
| 20260902222503 | 67 | 152 | 0.0 | 2.0 | 0.00 | 0.00 | 0.00 | 49 | |
| 20260902222004 | 68 | 143 | 1.0 | 2.0 | 0.00 | 0.00 | 0.00 | 48 | |
| 20260902221503 | 68 | 163 | 0.0 | 2.0 | 0.00 | 0.00 | 0.00 | 48 | |
| 20260902221003 | 68 | 225 | 0.0 | 1.0 | 0.00 | 0.00 | 0.00 | 48 | |
| 20260902220503 | 68 | 225 | 0.0 | 1.0 | 0.00 | 0.00 | 0.00 | 47 | |
| 20260902220003 | 68 | 225 | 0.0 | 1.0 | 0.00 | 0.00 | 0.00 | 47 | |
| 20260902215503 | 69 | 225 | 0.0 | 1.0 | 0.00 | 0.00 | 0.00 | 46 | |
| 20260902215003 | 69 | 225 | 0.0 | 1.0 | 0.00 | 0.00 | 0.00 | 45 | |
| 20260902214503 | 69 | 225 | 0.0 | 1.0 | 0.00 | 0.00 | 0.00 | 44 | |
| 20260902214003 | 69 | 225 | 0.0 | 1.0 | 0.00 | 0.00 | 0.00 | 44 | |
| 20260902213503 | 69 | 225 | 0.0 | 1.0 | 0.00 | 0.00 | 0.00 | 44 | |
| 20260902213003 | 69 | 225 | 0.0 | 1.0 | 0.00 | 0.00 | 0.00 | 43 | |
| 20260902212503 | 70 | 225 | 0.0 | 1.0 | 0.00 | 0.00 | 0.00 | 43 | |
| 20260902212003 | 70 | 225 | 0.0 | 1.0 | 0.00 | 0.00 | 0.00 | 43 | |
| 20260902211503 | 70 | 225 | 0.0 | 1.0 | 0.00 | 0.00 | 0.00 | 42 | |
| 20260902211003 | 70 | 225 | 0.0 | 1.0 | 0.00 | 0.00 | 0.00 | 43 | |
| 20260902210503 | 70 | 0 | 0.0 | 0.0 | 0.00 | 0.00 | 0.00 | 42 | |
| 20260902210003 | 70 | 0 | 0.0 | 0.0 | 0.00 | 0.00 | 0.00 | 42 | |
| 20260902205503 | 70 | 0 | 0.0 | 0.0 | 0.00 | 0.00 | 0.00 | 41 | |
| 20260902205003 | 70 | 0 | 0.0 | 0.0 | 0.00 | 0.00 | 0.00 | 41 | |
| 20260902204503 | 70 | 0 | 0.0 | 0.0 | 0.00 | 0.00 | 0.00 | 40 | |
| 20260902204003 | 70 | 0 | 0.0 | 0.0 | 0.00 | 0.00 | 0.00 | 41 | |
| 20260902203503 | 71 | 0 | 0.0 | 0.0 | 0.00 | 0.00 | 0.00 | 40 | |
| 20260902203003 | 71 | 0 | 0.0 | 0.0 | 0.00 | 0.00 | 0.00 | 40 | |
| 20260902202503 | 71 | 0 | 0.0 | 0.0 | 0.00 | 0.00 | 0.00 | 38 | |
| 20260902202003 | 71 | 0 | 0.0 | 0.0 | 0.00 | 0.00 | 0.00 | 38 | |
| 20260902201503 | 72 | 135 | 0.0 | 1.0 | 0.00 | 0.00 | 0.00 | 38 | |
| 20260902201003 | 72 | 135 | 0.0 | 1.0 | 0.00 | 0.00 | 0.00 | 37 | |
| 20260902200503 | 72 | 135 | 0.0 | 1.0 | 0.00 | 0.00 | 0.00 | 36 | |
| 20260902200003 | 72 | 135 | 0.0 | 1.0 | 0.00 | 0.00 | 0.00 | 36 | |
| 20260902195503 | 72 | 135 | 0.0 | 1.0 | 0.00 | 0.00 | 0.00 | 35 | |
| 20260902195003 | 73 | 135 | 0.0 | 1.0 | 0.00 | 0.00 | 0.00 | 35 | |
| 20260902194503 | 73 | 135 | 0.0 | 1.0 | 0.00 | 0.00 | 0.00 | 35 | |
| 20260902194003 | 73 | 135 | 0.0 | 1.0 | 0.00 | 0.00 | 0.00 | 34 | |
| 20260902193503 | 74 | 135 | 0.0 | 1.0 | 0.00 | 0.00 | 0.00 | 34 | |
| 20260902193003 | 74 | 135 | 0.0 | 1.0 | 0.00 | 0.00 | 0.00 | 33 | |
| 20260902192503 | 74 | 135 | 0.0 | 1.0 | 0.00 | 0.00 | 0.00 | 32 | |
| 20260902192004 | 74 | 135 | 0.0 | 2.0 | 0.00 | 0.00 | 0.00 | 31 | |
| 20260902191503 | 74 | 135 | 0.0 | 2.0 | 0.00 | 0.00 | 0.00 | 31 | |
| 20260902191003 | 75 | 135 | 1.0 | 2.0 | 0.00 | 0.00 | 0.00 | 30 | |
| 20260902190503 | 75 | 135 | 0.0 | 1.0 | 0.00 | 0.00 | 0.00 | 30 | |
| 20260902190003 | 75 | 140 | 0.0 | 1.0 | 0.00 | 0.00 | 0.00 | 30 | |
| 20260902185503 | 75 | 144 | 0.0 | 1.0 | 0.00 | 0.00 | 0.00 | 29 | |
| 20260902185003 | 75 | 145 | 0.0 | 1.0 | 0.00 | 0.00 | 0.00 | 29 | |
| 20260902184503 | 76 | 146 | 0.0 | 1.0 | 0.00 | 0.00 | 0.00 | 29 | |
| 20260902184003 | 76 | 0 | 0.0 | 0.0 | 0.00 | 0.00 | 0.00 | 28 | |
| 20260902183503 | 76 | 0 | 0.0 | 0.0 | 0.00 | 0.00 | 0.00 | 28 | |
| 20260902183003 | 76 | 270 | 0.0 | 1.0 | 0.00 | 0.00 | 0.00 | 28 | |
| 20260902182503 | 77 | 258 | 0.0 | 1.0 | 0.00 | 0.00 | 0.00 | 27 | |
| 20260902182004 | 77 | 260 | 0.0 | 2.0 | 0.00 | 0.00 | 0.00 | 27 | |
| 20260902181503 | 77 | 245 | 0.0 | 2.0 | 0.00 | 0.00 | 0.00 | 26 | |
| 20260902181003 | 77 | 225 | 0.0 | 1.0 | 0.00 | 0.00 | 0.00 | 25 | |
| 20260902180503 | 78 | 249 | 0.0 | 2.0 | 0.00 | 0.00 | 0.00 | 24 | |
| 20260902180005 | 78 | 272 | 0.0 | 4.0 | 0.00 | 0.00 | 0.00 | 24 | |
| 20260902175503 | 78 | 258 | 1.0 | 5.0 | 0.00 | 0.00 | 0.00 | 23 | |
| 20260902175003 | 78 | 252 | 2.0 | 5.0 | 0.00 | 0.00 | 0.00 | 23 | |
| 20260902174503 | 79 | 267 | 2.0 | 6.0 | 0.00 | 0.00 | 0.00 | 22 | |
| 20260902174003 | 79 | 268 | 1.0 | 6.0 | 0.00 | 0.00 | 0.00 | 22 | |
| 20260902173503 | 79 | 257 | 2.0 | 4.0 | 0.00 | 0.00 | 0.00 | 22 | |
| 20260902173003 | 79 | 262 | 1.0 | 4.0 | 0.00 | 0.00 | 0.00 | 22 | |
| 20260902172503 | 80 | 284 | 0.0 | 4.0 | 0.00 | 0.00 | 0.00 | 21 | |
| 20260902172004 | 80 | 237 | 1.0 | 5.0 | 0.00 | 0.00 | 0.00 | 21 | |
| 20260902171503 | 80 | 256 | 1.0 | 5.0 | 0.00 | 0.00 | 0.00 | 20 | |
| 20260902171003 | 80 | 274 | 2.0 | 5.0 | 0.00 | 0.00 | 0.00 | 20 | |
| 20260902170503 | 80 | 273 | 2.0 | 4.0 | 0.00 | 0.00 | 0.00 | 19 | |
| 20260902170003 | 80 | 265 | 2.0 | 4.0 | 0.00 | 0.00 | 0.00 | 19 | |
| 20260902165503 | 80 | 253 | 2.0 | 5.0 | 0.00 | 0.00 | 0.00 | 19 | |
| 20260902165003 | 81 | 248 | 1.0 | 5.0 | 0.00 | 0.00 | 0.00 | 20 | |
| 20260902164503 | 81 | 255 | 0.0 | 5.0 | 0.00 | 0.00 | 0.00 | 20 | |
| 20260902164003 | 81 | 268 | 1.0 | 4.0 | 0.00 | 0.00 | 0.00 | 20 | |
| 20260902163503 | 81 | 227 | 2.0 | 7.0 | 0.00 | 0.00 | 0.00 | 19 | |
| 20260902163003 | 81 | 238 | 1.0 | 7.0 | 0.00 | 0.00 | 0.00 | 19 | |
| 20260902162504 | 81 | 295 | 2.0 | 7.0 | 0.00 | 0.00 | 0.00 | 18 | |
| 20260902162003 | 82 | 253 | 3.0 | 7.0 | 0.00 | 0.00 | 0.00 | 17 | |
| 20260902161503 | 82 | 262 | 2.0 | 6.0 | 0.00 | 0.00 | 0.00 | 17 | |
| 20260902161003 | 82 | 319 | 2.0 | 4.0 | 0.00 | 0.00 | 0.00 | 17 | |
| 20260902160503 | 83 | 284 | 1.0 | 6.0 | 0.00 | 0.00 | 0.00 | 16 | |
| 20260902160004 | 83 | 274 | 1.0 | 6.0 | 0.00 | 0.00 | 0.00 | 16 | |
| 20260902155503 | 83 | 287 | 1.0 | 7.0 | 0.00 | 0.00 | 0.00 | 16 | |
| 20260902155003 | 83 | 278 | 2.0 | 7.0 | 0.00 | 0.00 | 0.00 | 16 | |
| 20260902154503 | 84 | 258 | 2.0 | 5.0 | 0.00 | 0.00 | 0.00 | 16 | |
| 20260902154003 | 84 | 247 | 3.0 | 5.0 | 0.00 | 0.00 | 0.00 | 15 | |
| 20260902153503 | 85 | 233 | 2.0 | 6.0 | 0.00 | 0.00 | 0.00 | 15 | |
| 20260902153003 | 85 | 241 | 2.0 | 6.0 | 0.00 | 0.00 | 0.00 | 14 | |
| 20260902152503 | 86 | 246 | 0.0 | 5.0 | 0.00 | 0.00 | 0.00 | 14 | |
| 20260902152003 | 85 | 237 | 2.0 | 8.0 | 0.00 | 0.00 | 0.00 | 14 | |
| 20260902151503 | 85 | 289 | 2.0 | 8.0 | 0.00 | 0.00 | 0.00 | 13 | |
| 20260902151003 | 85 | 24 | 3.0 | 6.0 | 0.00 | 0.00 | 0.00 | 13 | |
| 20260902150503 | 86 | 32 | 2.0 | 5.0 | 0.00 | 0.00 | 0.00 | 13 | |
| 20260902150003 | 86 | 248 | 2.0 | 5.0 | 0.00 | 0.00 | 0.00 | 13 | |
| 20260902145503 | 86 | 279 | 2.0 | 7.0 | 0.00 | 0.00 | 0.00 | 13 | |
| 20260902145003 | 85 | 262 | 1.0 | 7.0 | 0.00 | 0.00 | 0.00 | 14 | |
| 20260902144503 | 84 | 266 | 1.0 | 7.0 | 0.00 | 0.00 | 0.00 | 15 | |
| 20260902144003 | 84 | 268 | 3.0 | 11.0 | 0.00 | 0.00 | 0.00 | 14 | |
| 20260902143503 | 85 | 266 | 2.0 | 11.0 | 0.00 | 0.00 | 0.00 | 13 | |
| 20260902143003 | 86 | 286 | 4.0 | 8.0 | 0.00 | 0.00 | 0.00 | 12 | |
| 20260902142503 | 87 | 293 | 2.0 | 8.0 | 0.00 | 0.00 | 0.00 | 12 | |
| 20260902142003 | 85 | 274 | 1.0 | 4.0 | 0.00 | 0.00 | 0.00 | 14 | |
| 20260902141503 | 84 | 268 | 2.0 | 8.0 | 0.00 | 0.00 | 0.00 | 14 | |
| 20260902141003 | 84 | 244 | 2.0 | 8.0 | 0.00 | 0.00 | 0.00 | 13 | |
| 20260902140503 | 86 | 230 | 2.0 | 6.0 | 0.00 | 0.00 | 0.00 | 11 | |
| 20260902140003 | 86 | 289 | 2.0 | 6.0 | 0.00 | 0.00 | 0.00 | 11 | |
| 20260902135503 | 87 | 272 | 2.0 | 8.0 | 0.00 | 0.00 | 0.00 | 10 | |
| 20260902135003 | 87 | 258 | 0.0 | 8.0 | 0.00 | 0.00 | 0.00 | 11 | |
| 20260902134503 | 87 | 245 | 4.0 | 8.0 | 0.00 | 0.00 | 0.00 | 10 | |
| 20260902134003 | 87 | 219 | 2.0 | 6.0 | 0.00 | 0.00 | 0.00 | 10 | |
| 20260902133503 | 88 | 205 | 3.0 | 6.0 | 0.00 | 0.00 | 0.00 | 10 | |
| 20260902133003 | 88 | 218 | 3.0 | 5.0 | 0.00 | 0.00 | 0.00 | 10 | |
| 20260902132503 | 87 | 283 | 1.0 | 8.0 | 0.00 | 0.00 | 0.00 | 11 | |
| 20260902132003 | 86 | 295 | 1.0 | 8.0 | 0.00 | 0.00 | 0.00 | 10 | |
| 20260902131503 | 86 | 262 | 3.0 | 7.0 | 0.00 | 0.00 | 0.00 | 10 | |
| 20260902131003 | 86 | 184 | 2.0 | 4.0 | 0.00 | 0.00 | 0.00 | 10 | |
| 20260902130503 | 87 | 210 | 2.0 | 7.0 | 0.00 | 0.00 | 0.00 | 10 | |
| 20260902130003 | 87 | 280 | 2.0 | 8.0 | 0.00 | 0.00 | 0.00 | 10 | |
| 20260902125503 | 86 | 261 | 3.0 | 8.0 | 0.00 | 0.00 | 0.00 | 10 | |
| 20260902125003 | 87 | 263 | 2.0 | 5.0 | 0.00 | 0.00 | 0.00 | 10 | |
| 20260902124503 | 87 | 272 | 2.0 | 7.0 | 0.00 | 0.00 | 0.00 | 10 | |
| 20260902124003 | 87 | 268 | 2.0 | 7.0 | 0.00 | 0.00 | 0.00 | 10 | |
| 20260902123503 | 86 | 272 | 1.0 | 7.0 | 0.00 | 0.00 | 0.00 | 10 | |
| 20260902123003 | 86 | 264 | 1.0 | 7.0 | 0.00 | 0.00 | 0.00 | 10 | |
| 20260902122503 | 86 | 265 | 1.0 | 5.0 | 0.00 | 0.00 | 0.00 | 11 | |
| 20260902122003 | 85 | 236 | 2.0 | 5.0 | 0.00 | 0.00 | 0.00 | 11 | |
| 20260902121503 | 85 | 261 | 2.0 | 6.0 | 0.00 | 0.00 | 0.00 | 12 | |
| 20260902121003 | 85 | 301 | 2.0 | 6.0 | 0.00 | 0.00 | 0.00 | 11 | |
| 20260902120503 | 85 | 325 | 2.0 | 6.0 | 0.00 | 0.00 | 0.00 | 11 | |
| 20260902120003 | 85 | 320 | 2.0 | 7.0 | 0.00 | 0.00 | 0.00 | 11 | |
| 20260902115503 | 85 | 307 | 0.0 | 7.0 | 0.00 | 0.00 | 0.00 | 12 | |
| 20260902115003 | 85 | 287 | 3.0 | 6.0 | 0.00 | 0.00 | 0.00 | 11 | |
| 20260902114503 | 85 | 248 | 1.0 | 4.0 | 0.00 | 0.00 | 0.00 | 12 | |
| 20260902114003 | 85 | 247 | 0.0 | 6.0 | 0.00 | 0.00 | 0.00 | 13 | |
| 20260902113503 | 84 | 253 | 1.0 | 8.0 | 0.00 | 0.00 | 0.00 | 12 | |
| 20260902113003 | 84 | 268 | 2.0 | 8.0 | 0.00 | 0.00 | 0.00 | 12 | |
| 20260902112503 | 84 | 257 | 3.0 | 5.0 | 0.00 | 0.00 | 0.00 | 12 | |
| 20260902112003 | 84 | 271 | 1.0 | 6.0 | 0.00 | 0.00 | 0.00 | 14 | |
| 20260902111503 | 84 | 291 | 0.0 | 7.0 | 0.00 | 0.00 | 0.00 | 13 | |
| 20260902111003 | 84 | 299 | 2.0 | 7.0 | 0.00 | 0.00 | 0.00 | 13 | |
| 20260902110503 | 85 | 300 | 0.0 | 4.0 | 0.00 | 0.00 | 0.00 | 14 | |
| 20260902110005 | 85 | 238 | 0.0 | 4.0 | 0.00 | 0.00 | 0.00 | 14 | |
| 20260902105503 | 85 | 263 | 1.0 | 3.0 | 0.00 | 0.00 | 0.00 | 13 | |
| 20260902105003 | 86 | 281 | 0.0 | 2.0 | 0.00 | 0.00 | 0.00 | 15 | |
| 20260902104503 | 85 | 24 | 0.0 | 3.0 | 0.00 | 0.00 | 0.00 | 16 | |
| 20260902104003 | 85 | 36 | 0.0 | 3.0 | 0.00 | 0.00 | 0.00 | 19 | |
| 20260902103503 | 85 | 27 | 1.0 | 3.0 | 0.00 | 0.00 | 0.00 | 20 | |
| 20260902103003 | 84 | 7 | 0.0 | 2.0 | 0.00 | 0.00 | 0.00 | 21 | |
| 20260902102503 | 83 | 272 | 0.0 | 3.0 | 0.00 | 0.00 | 0.00 | 21 | |
| 20260902102003 | 82 | 305 | 0.0 | 3.0 | 0.00 | 0.00 | 0.00 | 21 | |
| 20260902101503 | 83 | 354 | 0.0 | 2.0 | 0.00 | 0.00 | 0.00 | 23 | |
| 20260902101003 | 82 | 357 | 0.0 | 2.0 | 0.00 | 0.00 | 0.00 | 25 | |
| 20260902100503 | 80 | 317 | 0.0 | 2.0 | 0.00 | 0.00 | 0.00 | 27 | |
| 20260902100003 | 80 | 336 | 0.0 | 2.0 | 0.00 | 0.00 | 0.00 | 27 | |
| 20260902095503 | 79 | 356 | 1.0 | 2.0 | 0.00 | 0.00 | 0.00 | 26 | |
| 20260902095003 | 79 | 29 | 0.0 | 4.0 | 0.00 | 0.00 | 0.00 | 29 | |
| 20260902094503 | 78 | 33 | 0.0 | 4.0 | 0.00 | 0.00 | 0.00 | 29 | |
| 20260902094003 | 78 | 18 | 0.0 | 2.0 | 0.00 | 0.00 | 0.00 | 30 | |
| 20260902093503 | 78 | 301 | 1.0 | 3.0 | 0.00 | 0.00 | 0.00 | 30 | |
| 20260902093003 | 77 | 342 | 0.0 | 3.0 | 0.00 | 0.00 | 0.00 | 32 | |
| 20260902092503 | 76 | 360 | 2.0 | 3.0 | 0.00 | 0.00 | 0.00 | 31 | |
| 20260902092003 | 76 | 311 | 1.0 | 2.0 | 0.00 | 0.00 | 0.00 | 31 | |
| 20260902091503 | 75 | 299 | 0.0 | 2.0 | 0.00 | 0.00 | 0.00 | 33 | |
| 20260902091003 | 74 | 25 | 0.0 | 2.0 | 0.00 | 0.00 | 0.00 | 36 | |
| 20260902090503 | 72 | 94 | 0.0 | 2.0 | 0.00 | 0.00 | 0.00 | 42 | |
| 20260902090004 | 72 | 145 | 0.0 | 2.0 | 0.00 | 0.00 | 0.00 | 42 | |
| 20260902085503 | 71 | 271 | 0.0 | 3.0 | 0.00 | 0.00 | 0.00 | 45 | |
| 20260902085003 | 70 | 277 | 0.0 | 3.0 | 0.00 | 0.00 | 0.00 | 45 | |
| 20260902084503 | 69 | 266 | 0.0 | 2.0 | 0.00 | 0.00 | 0.00 | 45 | |
| 20260902084003 | 69 | 273 | 0.0 | 2.0 | 0.00 | 0.00 | 0.00 | 45 | |
| 20260902083503 | 69 | 209 | 0.0 | 2.0 | 0.00 | 0.00 | 0.00 | 45 | |
| 20260902083003 | 68 | 225 | 0.0 | 2.0 | 0.00 | 0.00 | 0.00 | 45 | |
| 20260902082503 | 68 | 258 | 0.0 | 2.0 | 0.00 | 0.00 | 0.00 | 47 | |
| 20260902082003 | 68 | 285 | 0.0 | 2.0 | 0.00 | 0.00 | 0.00 | 48 | |
| 20260902081503 | 68 | 274 | 0.0 | 2.0 | 0.00 | 0.00 | 0.00 | 48 | |
| 20260902081003 | 67 | 269 | 0.0 | 2.0 | 0.00 | 0.00 | 0.00 | 49 | |
| 20260902080503 | 67 | 249 | 0.0 | 2.0 | 0.00 | 0.00 | 0.00 | 49 |